Home > Weather > Santa Maria > Past weeks

Flag for Cabo Verde Weather for the Past 2 Weeks in Santa Maria, Cabo Verde

Now
79 °F

Passing clouds.


Feels Like: 81 °F
Forecast: 68 / 80 °F
Wind: 22 mph from Northeast

Location: Sal

Current Time: May 1, 2016 at 3:11:06 PM

Latest Report: May 1, 2016 at 2:00 PM


Visibility: N/A

Pressure: 29.95 "Hg

Humidity: 61%

Dew Point: 64 °F

Location of Santa MariaLocation

Historic Weather in Santa Maria — Graph

°F

Santa Maria Temperature Yesterday

Maximum temperature yesterday: 81 °F (at 2:00 PM)
Minimum temperature yesterday: 68 °F (at 12:00 AM)
Average temperature yesterday: 72 °F

High & Low Weather Summary for the Past Weeks

 TemperatureHumidityPressure
High86 °F (Apr 17, 3:00 PM)88% (Apr 19, 2:00 AM)30.04 "Hg (Apr 19, 2:00 AM)
Low66 °F (Apr 27, 6:00 AM)31% (Apr 22, 12:00 PM)29.89 "Hg (Apr 23, 4:00 PM)
Average73 °F69%29.96 "Hg
* Reported Apr 16 2:00 PM — May 1 2:00 PM, Santa Maria, Weather by CustomWeather, © 2016

Note: Actual official high and low records may vary slightly from our data, if they occured in-between our weather recording intervals... More about our weather records

Advertising

Santa Maria Weather History for the Previous 24 Hours

Scroll right to see more
 ConditionsComfort  
Time TempWeatherWind HumidityBarometerVisibility
2:00 PM
Sun, May 1
79 °FPassing clouds.22 mph61%29.95 "HgN/A
1:00 PM81 °FPassing clouds.21 mph58%29.95 "HgN/A
12:00 PM81 °FPassing clouds.22 mph58%29.98 "HgN/A
11:00 AM79 °FPassing clouds.21 mph61%29.98 "HgN/A
10:00 AM77 °FPassing clouds.20 mph65%29.98 "HgN/A
9:00 AM75 °FPassing clouds.17 mph69%29.98 "HgN/A
8:00 AM72 °FPassing clouds.17 mph78%29.98 "HgN/A
7:00 AM68 °FPassing clouds.15 mph88%29.95 "HgN/A
6:00 AM68 °FScattered clouds.14 mph88%29.92 "HgN/A
5:00 AM68 °FPartly sunny.14 mph88%29.92 "HgN/A
4:00 AM68 °FPassing clouds.13 mph88%29.92 "HgN/A
3:00 AM68 °FPassing clouds.13 mph88%29.92 "HgN/A
2:00 AM68 °FPassing clouds.12 mph88%29.95 "HgN/A
1:00 AM68 °FPassing clouds.13 mph88%29.95 "HgN/A
12:00 AM68 °FPassing clouds.13 mph88%29.98 "HgN/A
11:00 PM
Sat, Apr 30
70 °FPassing clouds.13 mph83%29.98 "HgN/A
10:00 PM70 °FPassing clouds.14 mph83%29.98 "HgN/A
9:00 PM70 °FPassing clouds.14 mph83%29.95 "HgN/A
8:00 PM70 °FPassing clouds.18 mph83%29.95 "HgN/A
7:00 PM72 °FPassing clouds.16 mph73%29.92 "HgN/A
6:00 PM73 °FPassing clouds.17 mph69%29.92 "HgN/A
5:00 PM75 °FPassing clouds.18 mph65%29.92 "HgN/A
4:00 PM75 °FPartly sunny.18 mph65%29.89 "HgN/A
3:00 PM79 °FPartly sunny.16 mph54%29.92 "HgN/A
Weather by CustomWeather, © 2016

See weather overviewHow to use our weather pages